Total_Precipitation_Accumulation
1.17 1.15 1.18 1.20 1.31 1.45 1.60 1.81 2.00 1.91 1.64 1.42 1.40 1.36 1.29 1.37 1.58 1.34 1.24 1.26 1.14 1.07 1.07 1.07 1.09 1.11 1.10 1.06 1.08 1.13 1.21 1.35 1.57 1.76 1.93 2.10 2.22 2.31
1.12 1.06 1.05 1.06 1.10 1.16 1.28 1.44 1.66 1.81 1.70 1.39 1.30 1.22 1.18 1.15 1.39 1.22 1.24 1.24 1.04 0.91 0.86 0.87 0.90 0.95 0.95 0.91 0.92 0.96 1.01 1.09 1.24 1.42 1.63 1.81 1.94 2.10
1.02 1.01 0.99 1.00 1.03 1.02 1.09 1.21 1.36 1.53 1.67 1.52 1.32 1.20 1.15 1.17 1.22 1.13 1.09 1.02 0.95 0.93 0.81 0.75 0.77 0.83 0.83 0.81 0.84 0.87 0.90 0.99 1.13 1.27 1.44 1.62 1.77 1.87
0.97 1.00 0.98 0.97 1.00 1.00 1.04 1.10 1.23 1.41 1.56 1.62 1.44 1.29 1.19 1.13 1.13 1.09 0.92 0.85 0.88 0.99 0.85 0.75 0.70 0.70 0.78 0.74 0.73 0.77 0.84 0.96 1.07 1.17 1.31 1.45 1.54 1.61
0.95 1.00 1.00 1.02 1.00 0.98 1.02 1.07 1.19 1.32 1.50 1.56 1.49 1.38 1.29 1.20 1.23 1.14 1.02 1.08 0.93 0.94 0.87 0.80 0.73 0.72 0.93 0.95 0.72 0.69 0.74 0.87 0.97 1.03 1.13 1.23 1.29 1.33
0.81 0.92 0.98 1.00 0.99 1.04 1.06 1.10 1.18 1.36 1.48 1.52 1.45 1.35 1.31 1.29 1.33 1.33 1.27 1.23 1.11 0.89 0.90 0.84 0.81 0.83 1.15 1.64 1.12 0.80 0.75 0.81 0.90 0.97 1.01 1.01 1.00 1.01
0.70 0.77 0.83 0.84 0.84 0.90 0.93 1.03 1.16 1.32 1.40 1.46 1.42 1.37 1.30 1.37 1.39 1.32 1.28 1.30 1.18 1.05 1.03 0.94 1.07 1.35 1.86 2.47 1.97 1.32 1.07 0.96 0.88 0.91 0.94 0.93 0.88 0.83
0.76 0.76 0.71 0.71 0.69 0.66 0.73 0.83 1.00 1.20 1.37 1.44 1.41 1.39 1.33 1.36 1.44 1.42 1.39 1.42 1.40 1.15 1.09 1.08 1.30 2.02 2.67 2.98 2.51 1.68 1.34 1.10 0.96 0.99 1.02 0.98 0.86 0.76
0.81 0.79 0.67 0.64 0.73 0.73 0.73 0.76 0.88 1.02 1.23 1.45 1.50 1.40 1.36 1.39 1.51 1.56 1.49 1.48 1.46 1.26 1.27 1.32 1.54 2.34 2.59 2.72 2.52 1.77 1.45 1.28 1.18 1.22 1.21 1.02 0.84 0.73
0.64 0.72 0.80 0.82 0.74 0.74 0.73 0.84 0.94 1.05 1.13 1.25 1.43 1.35 1.29 1.36 1.45 1.49 1.44 1.40 1.32 1.23 1.27 1.44 1.66 2.18 2.19 2.29 2.33 1.83 1.52 1.39 1.32 1.31 1.25 1.03 0.84 0.73
0.47 0.53 0.58 0.62 0.62 0.69 0.80 0.96 1.01 1.12 1.14 1.29 1.32 1.27 1.26 1.27 1.22 1.26 1.46 1.56 1.46 1.21 1.13 1.32 1.55 1.84 1.89 1.97 1.92 1.76 1.59 1.48 1.37 1.30 1.19 0.95 0.81 0.75
0.49 0.57 0.56 0.48 0.51 0.65 0.84 1.03 1.18 1.21 1.31 1.48 1.46 1.43 1.33 1.26 1.16 1.20 1.48 1.66 1.61 1.37 1.12 1.19 1.35 1.51 1.73 1.72 1.59 1.50 1.57 1.61 1.51 1.45 1.28 0.97 0.72 0.65
0.52 0.61 0.63 0.54 0.49 0.56 0.75 0.94 1.10 1.14 1.37 1.62 1.51 1.36 1.30 1.25 1.23 1.23 1.35 1.44 1.41 1.31 1.07 1.16 1.36 1.45 1.54 1.58 1.52 1.50 1.47 1.51 1.54 1.60 1.49 1.17 0.81 0.60
0.61 0.61 0.59 0.56 0.53 0.59 0.74 0.91 1.03 1.21 1.41 1.52 1.32 1.16 1.07 1.05 1.09 1.05 1.03 1.04 1.08 1.07 0.99 1.09 1.36 1.54 1.53 1.42 1.48 1.48 1.47 1.50 1.53 1.59 1.61 1.42 1.11 0.87
0.55 0.59 0.57 0.55 0.63 0.83 0.95 1.04 1.18 1.38 1.45 1.31 1.16 1.05 0.93 0.91 0.87 0.88 0.87 0.90 0.90 0.80 0.73 0.81 1.08 1.32 1.43 1.40 1.43 1.40 1.48 1.67 1.68 1.67 1.64 1.50 1.29 1.08
0.49 0.64 0.69 0.72 0.89 1.08 1.21 1.29 1.38 1.43 1.30 1.17 1.07 0.95 0.82 0.83 0.83 0.79 0.86 0.89 0.94 0.88 0.77 0.78 0.91 1.12 1.25 1.24 1.36 1.45 1.48 1.85 1.95 1.78 1.73 1.68 1.45 1.23
0.46 0.66 0.82 0.87 0.99 1.13 1.26 1.32 1.37 1.35 1.27 1.15 1.06 0.96 0.87 0.85 0.82 0.75 0.80 0.81 0.86 0.89 0.87 0.87 0.92 0.98 1.04 1.10 1.28 1.40 1.52 1.76 1.89 1.71 1.60 1.69 1.58 1.34
0.54 0.82 0.92 0.91 0.96 1.04 1.14 1.24 1.24 1.20 1.14 1.12 1.11 1.07 0.97 0.86 0.82 0.78 0.76 0.80 0.86 0.84 0.81 0.80 0.79 0.80 0.88 0.97 1.18 1.32 1.35 1.53 1.60 1.47 1.29 1.35 1.49 1.33
0.60 0.81 0.92 0.97 1.00 1.02 1.03 1.07 1.13 1.14 1.07 1.05 1.03 0.98 0.88 0.81 0.78 0.79 0.77 0.79 0.80 0.75 0.66 0.59 0.58 0.62 0.72 1.02 1.21 1.28 1.27 1.26 1.24 1.24 1.15 1.08 1.21 1.22
0.59 0.76 0.87 0.94 1.00 1.02 0.99 0.95 1.00 1.03 0.97 0.90 0.88 0.86 0.81 0.79 0.78 0.77 0.76 0.70 0.67 0.62 0.59 0.52 0.49 0.55 0.68 0.89 1.26 1.42 1.20 1.00 0.94 1.01 1.01 0.99 1.12 1.16
0.52 0.64 0.76 0.84 0.85 0.85 0.88 0.88 0.91 0.94 0.89 0.84 0.85 0.85 0.82 0.77 0.72 0.63 0.57 0.48 0.50 0.54 0.55 0.58 0.57 0.50 0.50 0.63 0.90 1.16 1.16 1.03 0.86 0.82 0.83 0.89 0.94 0.88
0.48 0.59 0.68 0.71 0.70 0.66 0.67 0.70 0.73 0.75 0.76 0.78 0.78 0.75 0.71 0.66 0.58 0.52 0.49 0.49 0.50 0.53 0.52 0.52 0.49 0.46 0.50 0.62 0.78 0.93 0.96 0.85 0.76 0.75 0.72 0.68 0.67 0.74
0.50 0.54 0.58 0.61 0.61 0.58 0.55 0.54 0.56 0.60 0.63 0.66 0.69 0.68 0.62 0.56 0.50 0.44 0.42 0.39 0.39 0.41 0.43 0.45 0.48 0.48 0.51 0.54 0.58 0.65 0.68 0.65 0.57 0.56 0.67 0.69 0.64 0.72